Los Angeles, CA

7:47 AM PDT on May 26, 2017 (GMT -0700)
Los Angeles International

Weather History for KLAX - April, 2014

Change the Weather History Date:

Wednesday, April 23, 2014

  Actual Average Record
Temperature  
Mean Temperature 63 °F 61 °F  
Max Temperature 69 °F 67 °F 87 °F (2004)
Min Temperature 56 °F 55 °F 46 °F (2010)
Degree Days  
Heating Degree Days 2 5  
Month to date heating degree days 81 128  
Since 1 July heating degree days 726 1278  
Cooling Degree Days 0 1  
Month to date cooling degree days 9 2  
Year to date cooling degree days 44 17  
Growing Degree Days 12 (Base 50)    
Moisture  
Dew Point 48 °F    
Average Humidity 55    
Maximum Humidity 77    
Minimum Humidity 32    
Precipitation  
Precipitation 0.00 in 0.02 in 0.06 in (1988)
Month to date precipitation 0.17 0.59  
Year to date precipitation 3.32 8.40  
Since 1 July precipitation 4.36  
Sea Level Pressure  
Sea Level Pressure 29.94 in    
Wind  
Wind Speed 8 mph (West)    
Max Wind Speed 17 mph    
Max Gust Speed 23 mph    
Visibility 10 miles    
Events      
T = Trace of Precipitation, MM = Missing Value Source: NWS Daily Summary

Daily Weather History Graph

Daily Weather History Graph

Search for Another Location

Airport or City:

Trip Planner

Search our weather history database for the weather conditions in past years. The results will help you decide how hot, cold, wet, or windy it might be!

Date:

Astronomy

Apr. 23, 2014 Rise Set
Actual Time 6:13 AM PDT 7:31 PM PDT
Civil Twilight 5:47 AM PDT 7:57 PM PDT
Nautical Twilight 5:15 AM PDT 8:28 PM PDT
Astronomical Twilight 4:43 AM PDT 9:01 PM PDT
Moon 2:31 AM PDT (4/23) 2:00 PM PDT (4/23)
Length of Visible Light 14h 10m
Length of Day
13h 18m
Waning Crescent, 34% of the Moon is Illuminated
Apr 23
Waning Crescent
Apr 28
New
May 6
First Quarter
May 14
Full
May 21
Last Quarter

Hourly Weather History & Observations

Time (PDT) Temp. Dew Point Humidity Pressure Visibility Wind Dir Wind Speed Gust Speed Precip Events Conditions
12:53 AM 57.9 °F 48.0 °F 70% 29.93 in 10.0 mi East 6.9 mph - N/A   Mostly Cloudy
1:53 AM 57.0 °F 48.0 °F 72% 29.94 in 10.0 mi East 4.6 mph - N/A   Mostly Cloudy
2:53 AM 59.0 °F 48.9 °F 69% 29.93 in 10.0 mi NE 5.8 mph - N/A   Scattered Clouds
3:53 AM 57.9 °F 48.9 °F 72% 29.93 in 10.0 mi NE 6.9 mph - N/A   Partly Cloudy
4:53 AM 57.0 °F 50.0 °F 77% 29.92 in 10.0 mi Variable 4.6 mph - N/A   Partly Cloudy
5:53 AM 57.0 °F 48.9 °F 74% 29.94 in 10.0 mi NE 5.8 mph - N/A   Partly Cloudy
6:53 AM 57.9 °F 50.0 °F 75% 29.94 in 10.0 mi East 5.8 mph - N/A   Mostly Cloudy
7:53 AM 60.1 °F 51.1 °F 72% 29.96 in 9.0 mi ENE 5.8 mph - N/A   Mostly Cloudy
8:53 AM 64.0 °F 46.9 °F 54% 29.96 in 10.0 mi ENE 6.9 mph - N/A   Mostly Cloudy
9:53 AM 64.0 °F 45.0 °F 50% 29.96 in 10.0 mi Variable 3.5 mph - N/A   Mostly Cloudy
10:53 AM 68.0 °F 43.0 °F 40% 29.97 in 10.0 mi East 3.5 mph - N/A   Mostly Cloudy
11:53 AM 68.0 °F 48.0 °F 49% 29.97 in 10.0 mi West 11.5 mph - N/A   Mostly Cloudy
12:53 PM 66.0 °F 53.1 °F 63% 29.97 in 10.0 mi WSW 13.8 mph 23.0 mph N/A   Mostly Cloudy
1:53 PM 66.9 °F 50.0 °F 54% 29.96 in 10.0 mi West 16.1 mph - N/A   Mostly Cloudy
2:53 PM 66.9 °F 46.0 °F 47% 29.94 in 10.0 mi West 16.1 mph - N/A   Mostly Cloudy
3:53 PM 68.0 °F 37.9 °F 33% 29.93 in 10.0 mi West 15.0 mph - N/A   Mostly Cloudy
4:53 PM 66.9 °F 44.1 °F 44% 29.92 in 10.0 mi WSW 11.5 mph - N/A   Mostly Cloudy
5:53 PM 66.0 °F 46.9 °F 50% 29.92 in 10.0 mi WSW 12.7 mph - N/A   Scattered Clouds
6:53 PM 64.0 °F 48.9 °F 58% 29.91 in 10.0 mi West 13.8 mph - N/A   Scattered Clouds
7:53 PM 62.1 °F 48.9 °F 62% 29.92 in 10.0 mi WSW 5.8 mph - N/A   Partly Cloudy
8:53 PM 62.1 °F 50.0 °F 65% 29.94 in 10.0 mi West 6.9 mph - N/A   Partly Cloudy
9:53 PM 62.1 °F 48.0 °F 60% 29.94 in 10.0 mi WSW 3.5 mph - N/A   Partly Cloudy
10:53 PM 61.0 °F 52.0 °F 72% 29.94 in 10.0 mi WSW 5.8 mph - N/A   Clear
11:53 PM 61.0 °F 51.1 °F 70% 29.94 in 10.0 mi Calm Calm - N/A   Clear